Thiruvananthapuram Airport, India

2:04 PM IST on May 28, 2017 (GMT +0530)
Trivandrum

Weather History for VOTV - February, 2014

Change the Weather History Date:

Friday, February 7, 2014

  Actual Average Record
Temperature  
Mean Temperature 78 °F -  
Max Temperature 87 °F 85 °F 91 °F (2016)
Min Temperature 69 °F 74 °F 35 °F (1997)
Cooling Degree Days 13    
Growing Degree Days 28 (Base 50)    
Moisture  
Dew Point 67 °F    
Average Humidity 64    
Maximum Humidity 88    
Minimum Humidity 40    
Precipitation  
Precipitation 0.00 in 0.03 in - ()
Sea Level Pressure  
Sea Level Pressure 29.78 in    
Wind  
Wind Speed 1 mph ()    
Max Wind Speed 7 mph    
Max Gust Speed -    
Visibility 2.4 miles    
Events      
Averages and records for this station are not official NWS values.
T = Trace of Precipitation, MM = Missing Value Source: Averaged Metar Reports

Daily Weather History Graph

Daily Weather History Graph

Search for Another Location

Airport or City:

Trip Planner

Search our weather history database for the weather conditions in past years. The results will help you decide how hot, cold, wet, or windy it might be!

Date:

Astronomy

Feb. 07, 2014 Rise Set
Actual Time 6:42 AM IST 6:30 PM IST
Civil Twilight 6:20 AM IST 6:52 PM IST
Nautical Twilight 5:55 AM IST 7:17 PM IST
Astronomical Twilight 5:30 AM IST 7:42 PM IST
Moon 12:31 PM IST (2/7) No Moon Set
Length of Visible Light 12h 31m
Length of Day
11h 48m
First Quarter, 55% of the Moon is Illuminated
Feb 7
First Quarter
Feb 15
Full
Feb 22
Last Quarter
Mar 1
New
Mar 8
First Quarter

Hourly Weather History & Observations

Time (IST) Temp. Heat Index Dew Point Humidity Pressure Visibility Wind Dir Wind Speed Gust Speed Precip Events Conditions
12:10 AM 78.8 °F - 71.6 °F 78% 29.77 in 1.9 mi Calm Calm - N/A   Haze
12:40 AM 77.0 °F - 69.8 °F 78% 29.77 in 1.9 mi Calm Calm - N/A   Haze
1:10 AM 77.0 °F - 68.0 °F 74% 29.77 in 1.9 mi Calm Calm - N/A   Haze
1:40 AM 75.2 °F - 68.0 °F 78% 29.77 in 1.9 mi Calm Calm - N/A   Haze
2:10 AM 75.2 °F - 68.0 °F 78% 29.74 in 1.9 mi Calm Calm - N/A   Haze
3:10 AM 78.8 °F - 69.8 °F 74% 29.74 in 1.9 mi Calm Calm - N/A   Haze
4:10 AM 73.4 °F - 66.2 °F 78% 29.74 in 1.9 mi Calm Calm - N/A   Haze
5:10 AM 73.4 °F - 66.2 °F 78% 29.77 in 1.9 mi Calm Calm - N/A   Haze
6:10 AM 71.6 °F - 68.0 °F 88% 29.77 in 1.9 mi Calm Calm - N/A   Haze
7:10 AM 69.8 °F - 62.6 °F 78% 29.80 in 1.9 mi Calm Calm - N/A   Haze
7:40 AM 71.6 °F - 62.6 °F 73% 29.83 in 1.9 mi Calm Calm - N/A   Haze
8:10 AM 75.2 °F - 60.8 °F 61% 29.83 in 1.9 mi Calm Calm - N/A   Haze
9:10 AM 82.4 °F 83.4 °F 62.6 °F 51% 29.86 in 1.9 mi Calm Calm - N/A   Haze
9:40 AM 84.2 °F 85.6 °F 64.4 °F 51% 29.86 in 1.9 mi Calm Calm - N/A   Haze
10:10 AM 86.0 °F 88.2 °F 66.2 °F 51% 29.86 in 1.9 mi SE 3.5 mph - N/A   Haze
10:40 AM 86.0 °F 87.3 °F 64.4 °F 48% 29.86 in 2.5 mi South 3.5 mph - N/A   Haze
11:10 AM 86.0 °F 87.3 °F 64.4 °F 48% 29.83 in 2.5 mi South 4.6 mph - N/A   Haze
12:10 PM 87.8 °F 87.6 °F 60.8 °F 40% 29.80 in 3.1 mi South 4.6 mph - N/A   Haze
12:40 PM 87.8 °F 92.6 °F 69.8 °F 55% 29.80 in 3.7 mi SSE 5.8 mph - N/A   Clear
1:10 PM - - - N/A% 29.77 in 3.7 mi ESE 6.9 mph - N/A   Clear
2:10 PM 87.8 °F 93.8 °F 71.6 °F 58% 29.74 in - North - - N/A   Clear
2:40 PM 87.8 °F 93.8 °F 71.6 °F 58% 29.71 in 3.7 mi South 5.8 mph - N/A   Partly Cloudy
3:10 PM 87.8 °F 93.8 °F 71.6 °F 58% 29.71 in - North - - N/A   Partly Cloudy
4:10 PM 87.8 °F 95.6 °F 73.4 °F 62% 29.71 in - North - - N/A   Partly Cloudy
4:40 PM 87.8 °F 93.8 °F 71.6 °F 58% 29.71 in 3.7 mi South 5.8 mph - N/A   Partly Cloudy
5:10 PM 87.8 °F 95.6 °F 73.4 °F 62% 29.71 in - North - - N/A   Partly Cloudy
6:10 PM 86.0 °F 93.4 °F 73.4 °F 66% 29.74 in - North - - N/A   Haze
7:10 PM 84.2 °F 87.3 °F 68.0 °F 58% 29.74 in 2.5 mi SW 4.6 mph - N/A   Haze
7:40 PM 82.4 °F 84.6 °F 66.2 °F 58% 29.77 in 2.5 mi SW 3.5 mph - N/A   Partly Cloudy
8:10 PM 82.4 °F 83.9 °F 64.4 °F 54% 29.77 in - North - - N/A   Haze
8:40 PM 82.4 °F 84.6 °F 66.2 °F 58% 29.77 in 2.5 mi SW 3.5 mph - N/A   Partly Cloudy
9:10 PM 82.4 °F 83.9 °F 64.4 °F 54% 29.80 in 2.5 mi SW 3.5 mph - N/A   Haze
9:40 PM 82.4 °F 83.9 °F 64.4 °F 54% 29.80 in 2.5 mi Calm Calm - N/A   Partly Cloudy
10:10 PM - - - N/A% 29.80 in 2.5 mi Calm Calm - N/A   Haze
10:40 PM 78.8 °F - 66.2 °F 65% 29.80 in 2.5 mi Calm Calm - N/A   Partly Cloudy
11:10 PM 78.8 °F - 68.0 °F 69% 29.80 in 2.5 mi Calm Calm - N/A   Partly Cloudy
11:40 PM 77.0 °F - 68.0 °F 74% 29.80 in 2.5 mi Calm Calm - N/A   Partly Cloudy